When you browse on this site, cookies collect data to enhance your experience and personalize the content and advertising you see.
Visit our Privacy Policy to learn more. By continuing to use the site, you agree to this use of cookies and data.
  • In Romania
  • List of Countries
  • For 7 days
  • Water Temperature
  • Weather Map
  • Weather Widgets
  • user-avatar
    Login

    Hourly Weather Jutiapa

    Today, 19 September, Thursday

    Time Temperature Precipitation Wind Pressure Humidity
    00:00 +20°C° 0 mm 1 mps 672 mmHg 95%
    01:00 +20°C° 0 mm 1 mps 671 mmHg 95%
    02:00 +20°C° 0 mm 1 mps 671 mmHg 95%
    03:00 +19°C° 0 mm 1 mps 670 mmHg 96%
    04:00 +19°C° 0 mm 1 mps 671 mmHg 95%
    05:00 +19°C° 0 mm 1 mps 671 mmHg 95%
    06:00 +18°C° 0 mm 2 mps 671 mmHg 95%
    07:00 +21°C° 0 mm 1 mps 671 mmHg 89%
    08:00 +23°C° 0 mm 1 mps 672 mmHg 83%
    09:00 +25°C° 0 mm 1 mps 673 mmHg 77%
    10:00 +26°C° 0 mm 2 mps 673 mmHg 70%
    11:00 +27°C° 0 mm 2 mps 673 mmHg 63%
    12:00 +28°C° 0 mm 2 mps 672 mmHg 56%
    13:00 +28°C° 0.1 mm 2 mps 672 mmHg 58%
    14:00 +28°C° 0.1 mm 2 mps 671 mmHg 59%
    15:00 +28°C° 0.1 mm 1 mps 671 mmHg 61%
    16:00 +26°C° 0.1 mm 1 mps 670 mmHg 70%
    17:00 +24°C° 0.1 mm 1 mps 670 mmHg 78%
    18:00 +22°C° 0.1 mm 1 mps 670 mmHg 87%
    19:00 +22°C° 0 mm 1 mps 670 mmHg 88%
    20:00 +21°C° 0 mm 1 mps 671 mmHg 89%
    21:00 +20°C° 0 mm 1 mps 671 mmHg 89%
    22:00 +20°C° 0 mm 1 mps 671 mmHg 89%
    23:00 +20°C° 0 mm 1 mps 671 mmHg 89%

    Tomorrow, 20 September, Friday

    Time Temperature Precipitation Wind Pressure Humidity
    00:00 +20°C° 0 mm 1 mps 671 mmHg 89%
    01:00 +19°C° 0 mm 1 mps 670 mmHg 90%
    02:00 +19°C° 0 mm 1 mps 670 mmHg 91%
    03:00 +19°C° 0 mm 1 mps 670 mmHg 91%
    04:00 +19°C° 0 mm 1 mps 670 mmHg 92%
    05:00 +18°C° 0 mm 2 mps 670 mmHg 92%
    06:00 +18°C° 0 mm 2 mps 670 mmHg 92%
    07:00 +20°C° 0 mm 2 mps 671 mmHg 86%
    08:00 +23°C° 0 mm 2 mps 672 mmHg 80%
    09:00 +25°C° 0 mm 2 mps 673 mmHg 74%
    10:00 +26°C° 0.4 mm 2 mps 673 mmHg 73%
    11:00 +27°C° 0.4 mm 1 mps 673 mmHg 73%
    12:00 +27°C° 0.4 mm 1 mps 672 mmHg 73%
    13:00 +27°C° 1 mm 1 mps 672 mmHg 75%
    14:00 +27°C° 1 mm 1 mps 671 mmHg 77%
    15:00 +26°C° 1 mm 1 mps 671 mmHg 79%
    16:00 +25°C° 1 mm 1 mps 671 mmHg 85%
    17:00 +23°C° 1 mm 1 mps 671 mmHg 90%
    18:00 +22°C° 1 mm 1 mps 671 mmHg 95%
    19:00 +21°C° 0.8 mm 1 mps 671 mmHg 95%
    20:00 +19°C° 0.8 mm 0 mps 672 mmHg 95%
    21:00 +18°C° 0.8 mm 0 mps 672 mmHg 95%
    22:00 +18°C° 0.2 mm 0 mps 672 mmHg 94%
    23:00 +20°C° 0.2 mm 1 mps 672 mmHg 94%

    Day after tomorrow, 21 September, Saturday

    Time Temperature Precipitation Wind Pressure Humidity
    00:00 +20°C° 0.2 mm 1 mps 672 mmHg 94%
    01:00 +19°C° 0 mm 1 mps 671 mmHg 94%
    02:00 +19°C° 0 mm 1 mps 671 mmHg 95%
    03:00 +19°C° 0 mm 1 mps 671 mmHg 95%
    04:00 +19°C° 0 mm 1 mps 671 mmHg 95%
    05:00 +19°C° 0 mm 1 mps 671 mmHg 95%
    06:00 +19°C° 0 mm 1 mps 671 mmHg 95%
    07:00 +21°C° 0 mm 1 mps 672 mmHg 89%
    08:00 +23°C° 0 mm 1 mps 673 mmHg 83%
    09:00 +25°C° 0 mm 1 mps 674 mmHg 78%
    10:00 +26°C° 0.1 mm 1 mps 674 mmHg 74%
    11:00 +27°C° 0.1 mm 1 mps 673 mmHg 70%
    12:00 +28°C° 0.1 mm 1 mps 673 mmHg 66%
    13:00 +28°C° 0.8 mm 1 mps 672 mmHg 69%
    14:00 +27°C° 0.8 mm 1 mps 672 mmHg 72%
    15:00 +27°C° 0.8 mm 1 mps 671 mmHg 75%
    16:00 +25°C° 0.8 mm 1 mps 671 mmHg 81%
    17:00 +24°C° 0.8 mm 1 mps 671 mmHg 86%
    18:00 +22°C° 0.8 mm 1 mps 671 mmHg 92%
    19:00 +20°C° 0.8 mm 0 mps 671 mmHg 93%
    20:00 +19°C° 0.8 mm 0 mps 672 mmHg 94%
    21:00 +19°C° 0.8 mm 0 mps 672 mmHg 95%
    22:00 +18°C° 0.5 mm 0 mps 672 mmHg 95%
    23:00 +18°C° 0.5 mm 0 mps 672 mmHg 95%

    22 September, Sunday

    Time Temperature Precipitation Wind Pressure Humidity
    00:00 +20°C° 0.5 mm 1 mps 672 mmHg 95%
    01:00 +20°C° 0.1 mm 1 mps 672 mmHg 95%
    02:00 +19°C° 0.1 mm 1 mps 671 mmHg 95%
    03:00 +19°C° 0.1 mm 1 mps 671 mmHg 95%
    04:00 +19°C° 0 mm 1 mps 671 mmHg 95%
    05:00 +19°C° 0 mm 1 mps 671 mmHg 95%
    06:00 +19°C° 0 mm 1 mps 672 mmHg 95%
    07:00 +21°C° 0 mm 1 mps 672 mmHg 91%
    08:00 +23°C° 0 mm 1 mps 673 mmHg 87%
    09:00 +24°C° 0 mm 1 mps 674 mmHg 84%
    10:00 +25°C° 0.5 mm 1 mps 673 mmHg 81%
    11:00 +26°C° 0.5 mm 1 mps 673 mmHg 78%
    12:00 +28°C° 0.5 mm 1 mps 673 mmHg 75%
    13:00 +27°C° 1.8 mm 1 mps 673 mmHg 79%
    14:00 +26°C° 1.8 mm 1 mps 672 mmHg 83%
    15:00 +26°C° 1.8 mm 1 mps 671 mmHg 86%
    16:00 +24°C° 1.1 mm 1 mps 671 mmHg 89%
    17:00 +23°C° 1.1 mm 1 mps 671 mmHg 93%
    18:00 +22°C° 1.1 mm 1 mps 671 mmHg 96%
    19:00 +22°C° 1.2 mm 1 mps 672 mmHg 96%
    20:00 +20°C° 1.2 mm 0 mps 672 mmHg 96%
    21:00 +19°C° 1.2 mm 0 mps 673 mmHg 96%
    22:00 +19°C° 1.2 mm 0 mps 673 mmHg 96%
    23:00 +21°C° 1.2 mm 1 mps 673 mmHg 95%

    23 September, Monday

    Time Temperature Precipitation Wind Pressure Humidity
    00:00 +21°C° 1.2 mm 1 mps 673 mmHg 94%
    01:00 +20°C° 0.6 mm 1 mps 672 mmHg 94%
    02:00 +18°C° 0.6 mm 0 mps 672 mmHg 95%
    03:00 +18°C° 0.6 mm 0 mps 671 mmHg 95%
    04:00 +19°C° 0.2 mm 1 mps 672 mmHg 95%
    05:00 +19°C° 0.2 mm 1 mps 672 mmHg 95%
    06:00 +19°C° 0.2 mm 1 mps 672 mmHg 95%
    07:00 +21°C° 0 mm 1 mps 673 mmHg 90%
    08:00 +23°C° 0 mm 1 mps 673 mmHg 85%
    09:00 +25°C° 0 mm 1 mps 674 mmHg 80%
    10:00 +26°C° 1.2 mm 1 mps 674 mmHg 79%
    11:00 +27°C° 1.2 mm 1 mps 674 mmHg 79%
    12:00 +27°C° 1.2 mm 1 mps 673 mmHg 78%
    13:00 +27°C° 1.7 mm 1 mps 673 mmHg 81%
    14:00 +26°C° 1.7 mm 1 mps 672 mmHg 84%
    15:00 +25°C° 1.7 mm 1 mps 671 mmHg 87%
    16:00 +24°C° 1.2 mm 1 mps 671 mmHg 91%
    17:00 +23°C° 1.2 mm 1 mps 671 mmHg 94%
    18:00 +22°C° 1.2 mm 1 mps 671 mmHg 97%
    19:00 +22°C° 1.5 mm 1 mps 672 mmHg 97%
    20:00 +19°C° 1.5 mm 0 mps 672 mmHg 98%
    21:00 +19°C° 1.5 mm 0 mps 673 mmHg 98%
    22:00 +19°C° 1.4 mm 0 mps 673 mmHg 98%
    23:00 +21°C° 1.4 mm 1 mps 672 mmHg 97%

    24 September, Tuesday

    Time Temperature Precipitation Wind Pressure Humidity
    00:00 +21°C° 1.4 mm 1 mps 672 mmHg 97%
    01:00 +20°C° 0.4 mm 1 mps 672 mmHg 97%
    02:00 +20°C° 0.4 mm 1 mps 672 mmHg 96%
    03:00 +20°C° 0.4 mm 1 mps 671 mmHg 95%
    04:00 +20°C° 0 mm 1 mps 672 mmHg 95%
    05:00 +20°C° 0 mm 1 mps 672 mmHg 94%
    06:00 +19°C° 0 mm 1 mps 672 mmHg 93%
    07:00 +21°C° 0 mm 1 mps 673 mmHg 91%
    08:00 +22°C° 0 mm 1 mps 673 mmHg 88%
    09:00 +24°C° 0 mm 1 mps 674 mmHg 85%
    10:00 +24°C° 0 mm 1 mps 674 mmHg 82%
    11:00 +25°C° 0 mm 1 mps 673 mmHg 79%
    12:00 +25°C° 0 mm 1 mps 673 mmHg 76%
    13:00 +25°C° 0 mm 1 mps 672 mmHg 78%
    14:00 +25°C° 0 mm 1 mps 671 mmHg 80%
    15:00 +25°C° 0 mm 1 mps 671 mmHg 82%
    16:00 +24°C° 0.1 mm 1 mps 671 mmHg 87%
    17:00 +23°C° 0.1 mm 1 mps 671 mmHg 92%
    18:00 +22°C° 0.1 mm 1 mps 671 mmHg 97%
    19:00 +22°C° 0.4 mm 1 mps 671 mmHg 97%
    20:00 +21°C° 0.4 mm 1 mps 672 mmHg 98%
    21:00 +21°C° 0.4 mm 1 mps 672 mmHg 98%
    22:00 +19°C° 0.1 mm 0 mps 672 mmHg 97%
    23:00 +19°C° 0.1 mm 0 mps 672 mmHg 97%
    Show more